CW9181 Weather Reports


time (UTC)temp
F
wind
direction
speed
knots
gust
knots
rain 1hr
in
rain 24hr
in
rain mn
in
humidity
%
barometer
mb
20260503002806 74 175 2.6 6.1 0.00 0.00 0.00 52 1009.6
20260503001805 73 235 1.7 7.8 0.00 0.00 0.00 53 1009.7
20260503000806 74 216 5.2 8.7 0.00 0.00 0.00 51 1009.8
20260502235823 74 159 3.5 7.0 0.00 0.00 0.00 53 1009.9
20260502234840 73 214 1.7 6.1 0.00 0.00 0.00 53 1010.1
20260502233817 74 164 3.5 6.1 0.00 0.00 0.00 49 1010.0
20260502232816 75 238 1.7 7.0 0.00 0.00 0.00 48 1010.1
20260502231833 74 114 3.5 6.1 0.00 0.00 0.00 49 1010.2
20260502230832 75 151 1.7 6.1 0.00 0.00 0.00 49 1010.3
20260502225812 74 188 1.7 7.0 0.00 0.00 0.00 50 1010.5
20260502224807 74 233 0.9 4.3 0.00 0.00 0.00 49 1010.7
20260502223806 75 166 1.7 7.0 0.00 0.00 0.00 50 1010.8
20260502222830 74 207 2.6 7.0 0.00 0.00 0.00 53 1011.0
20260502221828 74 149 0.9 7.0 0.00 0.00 0.00 55 1011.3
20260502220831 73 195 1.7 7.0 0.00 0.00 0.00 55 1011.3
20260502215809 73 211 3.5 7.8 0.00 0.00 0.00 53 1011.5
20260502214813 72 222 5.2 8.7 0.00 0.00 0.00 53 1011.6
20260502213815 73 265 2.6 7.0 0.00 0.00 0.00 54 1011.6
20260502212812 73 239 1.7 8.7 0.00 0.00 0.00 56 1011.8
20260502211814 73 169 2.6 6.1 0.00 0.00 0.00 56 1012.0
20260502210818 72 220 4.3 8.7 0.00 0.00 0.00 55 1012.1
20260502205818 72 211 0.9 4.3 0.00 0.00 0.00 60 1012.1
20260502204817 71 235 1.7 9.6 0.00 0.00 0.00 61 1012.3
20260502203814 70 157 4.3 8.7 0.00 0.00 0.00 59 1012.4
20260502202819 70 157 3.5 7.8 0.00 0.00 0.00 62 1012.4
20260502201836 70 159 4.3 7.8 0.00 0.00 0.00 61 1012.6
20260502200816 69 164 3.5 8.7 0.00 0.00 0.00 63 1012.5
20260502195817 67 134 3.5 7.8 0.00 0.00 0.00 64 1012.5
20260502194813 67 162 3.5 7.0 0.00 0.00 0.00 65 1012.7
20260502193816 66 142 4.3 8.7 0.00 0.00 0.00 65 1012.7
20260502192818 67 145 4.3 7.0 0.00 0.00 0.00 66 1012.8
20260502191835 66 162 4.3 8.7 0.00 0.00 0.00 66 1012.9
20260502190834 66 178 5.2 9.6 0.00 0.00 0.00 67 1013.0
20260502185827 65 107 1.7 6.1 0.00 0.00 0.00 70 1013.2
20260502184822 65 151 1.7 7.8 0.00 0.00 0.00 70 1013.0
20260502183842 65 214 1.7 7.0 0.00 0.00 0.00 71 1012.9
20260502182817 63 207 3.5 7.8 0.00 0.00 0.00 71 1012.9
20260502181817 63 173 2.6 7.0 0.00 0.00 0.00 72 1013.1
20260502180840 63 153 2.6 7.8 0.00 0.00 0.00 72 1013.0
20260502163819 61 172 3.5 5.2 0.00 0.00 0.00 76 1013.0
20260502162816 61 148 3.5 7.8 0.00 0.00 0.00 76 1012.8
20260502161817 60 165 2.6 7.8 0.00 0.00 0.00 77 1012.8
20260502160819 60 158 4.3 7.8 0.00 0.00 0.00 76 1012.6
20260502151823 57 100 1.7 6.1 0.00 0.00 0.00 82 1012.4
20260502150808 56 130 3.5 7.8 0.00 0.00 0.00 83 1012.3
20260502122805 55 127 1.7 4.3 0.00 0.00 0.00 84 1011.1
20260502121808 55 166 1.7 5.2 0.00 0.00 0.00 83 1011.2
20260502120806 55 193 1.7 7.8 0.00 0.00 0.00 83 1011.1
20260502115805 55 137 3.5 7.0 0.00 0.00 0.00 82 1011.2
20260502114808 55 155 3.5 6.1 0.00 0.00 0.00 82 1011.4
20260502113804 56 150 4.3 7.0 0.00 0.00 0.00 81 1011.5
20260502112803 56 176 2.6 6.1 0.00 0.00 0.00 81 1011.5
20260502111807 56 165 3.5 8.7 0.00 0.00 0.00 81 1011.2
20260502110808 56 177 2.6 7.0 0.00 0.00 0.00 81 1011.2
20260502105811 57 136 1.7 5.2 0.00 0.00 0.00 80 1011.3
20260502104813 57 174 1.7 6.1 0.00 0.00 0.00 80 1011.4
20260502103834 57 139 1.7 4.3 0.00 0.00 0.00 80 1011.4
20260502102840 57 159 2.6 7.0 0.00 0.00 0.00 80 1011.4
20260502101841 57 116 1.7 6.1 0.00 0.00 0.00 80 1011.4
20260502100819 58 151 1.7 7.0 0.00 0.00 0.00 79 1011.3
20260502090812 59 137 0.9 4.3 0.00 0.00 0.00 78 1011.6
20260502070819 62 182 3.5 8.7 0.00 0.00 0.00 77 1011.8
20260502065831 63 151 1.7 7.8 0.00 0.00 0.00 77 1011.8
20260502064822 63 140 3.5 7.0 0.00 0.00 0.00 77 1011.7
20260502063822 64 110 2.6 6.1 0.00 0.00 0.00 76 1011.7
20260502062823 64 130 2.6 6.1 0.00 0.00 0.00 75 1011.5
20260502061819 65 193 4.3 7.8 0.00 0.00 0.00 75 1011.5
20260502060816 65 144 3.5 7.0 0.00 0.00 0.00 74 1011.7
20260502055835 66 149 2.6 7.0 0.00 0.00 0.00 74 1011.7
20260502054809 66 171 3.5 6.1 0.00 0.00 0.00 73 1011.7
20260502053806 67 126 3.5 8.7 0.00 0.00 0.00 72 1011.6
20260502052825 67 192 3.5 6.1 0.00 0.00 0.00 71 1011.7
20260502051822 68 151 2.6 6.1 0.00 0.00 0.00 70 1011.5
20260502050816 68 156 2.6 6.1 0.00 0.00 0.00 70 1011.5
20260502045808 69 132 0.0 2.6 0.00 0.00 0.00 68 1011.4
20260502044822 69 168 0.9 3.5 0.00 0.00 0.00 67 1011.3
20260502043819 70 193 0.9 3.5 0.00 0.00 0.00 66 1011.2
20260502042818 70 159 0.0 5.2 0.00 0.00 0.00 65 1011.1
20260502041810 71 199 1.7 5.2 0.00 0.00 0.00 64 1011.1
20260502040806 72 182 0.9 3.5 0.00 0.00 0.00 63 1011.0
20260502035823 72 192 1.7 7.8 0.00 0.00 0.00 61 1010.8
20260502034815 73 223 0.9 6.1 0.00 0.00 0.00 59 1010.7
20260502033815 74 214 1.7 5.2 0.00 0.00 0.00 56 1010.5
20260502032815 74 188 0.9 4.3 0.00 0.00 0.00 54 1010.4
20260502031827 75 191 1.7 7.0 0.00 0.00 0.00 53 1010.3
20260502030822 75 160 4.3 7.8 0.00 0.00 0.00 54 1010.2
20260502025820 76 172 1.7 5.2 0.00 0.00 0.00 56 1010.2
20260502024817 77 177 1.7 3.5 0.00 0.00 0.00 55 1010.1
20260502023819 78 195 1.7 3.5 0.00 0.00 0.00 54 1010.0
20260502022822 78 171 2.6 6.1 0.00 0.00 0.00 54 1009.9
20260502021819 79 169 1.7 7.0 0.00 0.00 0.00 53 1009.9
20260502020819 79 187 2.6 7.0 0.00 0.00 0.00 52 1009.9
20260502015817 80 178 3.5 9.6 0.00 0.00 0.00 51 1010.0
20260502014833 80 142 4.3 8.7 0.00 0.00 0.00 50 1010.0
20260502013812 81 199 4.3 8.7 0.00 0.00 0.00 50 1010.0
20260502012811 82 149 2.6 7.8 0.00 0.00 0.00 47 1010.0
20260502011844 82 161 2.6 7.0 0.00 0.00 0.00 46 1010.1
20260502010840 83 110 3.5 8.7 0.00 0.00 0.00 45 1010.2
20260502005817 84 96 3.5 6.1 0.00 0.00 0.00 45 1010.2
20260502004814 83 176 3.5 7.0 0.00 0.00 0.00 47 1010.3
20260502003814 83 144 3.5 7.8 0.00 0.00 0.00 45 1010.3